Clarksville, TN

1:18 AM CST on January 20, 2018 (GMT -0600)
Outlaw

Weather History for KCKV - August, 2012

Change the Weather History Date:

Tuesday, August 14, 2012

  Actual Average Record
Temperature  
Mean Temperature 73 °F 78 °F  
Max Temperature 79 °F 89 °F 104 °F (1954)
Min Temperature 67 °F 66 °F 48 °F (2004)
Degree Days  
Heating Degree Days 0    
Month to date heating degree days 0  
Since 1 June heating degree days  
Since 1 July heating degree days 0  
Cooling Degree Days 8    
Month to date cooling degree days 187  
Year to date cooling degree days  
Since 1 June cooling degree days  
Growing Degree Days 23 (Base 50)    
Moisture  
Dew Point 68 °F    
Average Humidity 79    
Maximum Humidity 93    
Minimum Humidity 64    
Precipitation  
Precipitation 0.00 in 0.08 in 0.70 in (1974)
Month to date precipitation 1.33 1.42  
Year to date precipitation 31.44  
Sea Level Pressure  
Sea Level Pressure 29.93 in    
Wind  
Wind Speed 6 mph (NW)    
Max Wind Speed 14 mph    
Max Gust Speed 17 mph    
Visibility 8 miles    
Events Rain    
T = Trace of Precipitation, MM = Missing Value Source: NWS Daily Summary

Daily Weather History Graph

Daily Weather History Graph

Search for Another Location

Airport or City:

Trip Planner

Search our weather history database for the weather conditions in past years. The results will help you decide how hot, cold, wet, or windy it might be!

Date:

Astronomy

Aug. 14, 2012 Rise Set
Actual Time 6:06 AM CDT 7:41 PM CDT
Civil Twilight 5:39 AM CDT 8:08 PM CDT
Nautical Twilight 5:06 AM CDT 8:41 PM CDT
Astronomical Twilight 4:31 AM CDT 9:16 PM CDT
Moon 3:06 AM CDT (8/14) 5:33 PM CDT (8/14)
Length of Visible Light 14h 29m
Length of Day
13h 34m
Waning Crescent, 9% of the Moon is Illuminated
Aug 14
Waning Crescent
Aug 17
New
Aug 24
First Quarter
Aug 31
Full
Sep 8
Last Quarter

Hourly Weather History & Observations

Time (CDT) Temp. Dew Point Humidity Pressure Visibility Wind Dir Wind Speed Gust Speed Precip Events Conditions
12:39 AM 73.4 °F 69.8 °F 88% 29.91 in 10.0 mi SW 4.6 mph - 0.00 in Rain Light Rain
12:52 AM 72.0 °F 69.1 °F 91% 29.89 in 10.0 mi SSW 4.6 mph - 0.01 in Rain Light Rain
1:52 AM 72.0 °F 69.1 °F 91% 29.88 in 10.0 mi South 4.6 mph - 0.00 in   Overcast
2:34 AM 71.6 °F 69.8 °F 94% 29.90 in 10.0 mi South 6.9 mph - N/A   Overcast
2:52 AM 72.0 °F 69.1 °F 91% 29.89 in 10.0 mi South 6.9 mph - N/A   Overcast
3:50 AM 71.6 °F 69.8 °F 94% 29.90 in 10.0 mi SW 3.5 mph - N/A   Overcast
3:52 AM 72.0 °F 69.1 °F 91% 29.89 in 10.0 mi Calm Calm - N/A   Overcast
4:41 AM 71.6 °F 69.8 °F 94% 29.90 in 10.0 mi NW 4.6 mph - N/A   Overcast
5:24 AM 71.6 °F 69.8 °F 94% 29.91 in 9.0 mi NNW 5.8 mph - N/A   Overcast
5:52 AM 71.1 °F 69.1 °F 93% 29.90 in 7.0 mi NW 5.8 mph - N/A   Overcast
6:52 AM 71.1 °F 68.0 °F 90% 29.91 in 6.0 mi NNW 4.6 mph - N/A   Overcast
7:52 AM 71.1 °F 68.0 °F 90% 29.92 in 5.0 mi NNW 9.2 mph - N/A   Overcast
8:52 AM 71.1 °F 68.0 °F 90% 29.94 in 5.0 mi North 5.8 mph - N/A   Overcast
9:25 AM 71.6 °F 69.8 °F 94% 29.95 in 6.0 mi NNW 4.6 mph - N/A   Overcast
9:52 AM 73.0 °F 68.0 °F 84% 29.95 in 7.0 mi NNW 5.8 mph - N/A   Overcast
10:18 AM 73.4 °F 69.8 °F 88% 29.96 in 6.0 mi NW 6.9 mph - N/A   Overcast
10:52 AM 73.0 °F 68.0 °F 84% 29.95 in 6.0 mi NW 10.4 mph - N/A   Haze
11:52 AM 73.0 °F 68.0 °F 84% 29.95 in 5.0 mi NNW 8.1 mph - N/A   Haze
12:52 PM 73.0 °F 66.9 °F 81% 29.96 in 5.0 mi WNW 8.1 mph - N/A   Haze
1:52 PM 72.0 °F 66.9 °F 84% 29.97 in 6.0 mi WNW 4.6 mph - N/A   Haze
2:18 PM 75.2 °F 68.0 °F 78% 29.97 in 7.0 mi West 6.9 mph - N/A   Mostly Cloudy
2:52 PM 75.9 °F 66.9 °F 74% 29.95 in 8.0 mi WNW 8.1 mph - N/A   Mostly Cloudy
3:52 PM 78.1 °F 66.9 °F 68% 29.93 in 10.0 mi Variable 4.6 mph - N/A   Scattered Clouds
4:52 PM 78.1 °F 66.0 °F 66% 29.93 in 10.0 mi NW 8.1 mph - N/A   Overcast
5:52 PM 77.0 °F 64.0 °F 64% 29.92 in 10.0 mi NNW 10.4 mph - N/A   Scattered Clouds
6:52 PM 73.9 °F 64.0 °F 71% 29.94 in 10.0 mi NNW 6.9 mph - N/A   Clear
7:52 PM 69.1 °F 64.0 °F 84% 29.94 in 10.0 mi North 3.5 mph - N/A   Clear
8:52 PM 68.0 °F 64.0 °F 87% 29.94 in 10.0 mi Calm Calm - N/A   Clear
9:52 PM 69.1 °F 64.9 °F 87% 29.96 in 10.0 mi Calm Calm - N/A   Clear
10:52 PM 68.0 °F 64.9 °F 90% 29.97 in 10.0 mi WNW 5.8 mph - N/A   Clear
11:52 PM 66.9 °F 64.9 °F 93% 29.95 in 7.0 mi Calm Calm - N/A   Clear